Location: Earls Croome
(52.0667°N, 2.2000°W)
Time: 21:58:46
(UTC+00:00)

FENGYUN 3A - Pass Details

Date: 17 November 2019
Orbit: 823 x 836 km, 98.4° (Epoch: 11 December)

Event Time Altitude Azimuth Distance (km) Brightness Sun altitude
Rises 05:27:09 0° 17° (NNE) 3,396 7.0 -18.8°
Reaches altitude 10° 05:29:34 10° 21° (NNE) 2,456 6.3 -18.5°
Maximum altitude 05:34:57 59° 101° (E) 962 4.3 -17.6°
Drops below altitude 10° 05:40:15 10° 181° (S) 2,430 6.2 -16.8°
Sets 05:42:38 0° 185° (S) 3,357 6.9 -16.5°
